User: anonymous   Login
Location: Unspecified
(0.0000°N, 0.0000°E)
Time: 03:15:14
(UTC+00:00)
Language:

DELFI C3 - Orbit

View from above orbital plane
View from above orbital plane
View from above satellite
View from above satellite

Ground track
Ground track

The orbit data is extracted from the following two-line orbital elements,

1 32789U 08021G   19082.89242999  .00001412  00000-0  98872-4 0  9998
2 32789  97.4752 135.1393 0013625  66.8128 293.4533 15.06735461593899
Epoch (UTC): 23 March 2019 21:25:05
Eccentricity: 0.0013625
inclination: 97.4752°
perigee height: 537 km
apogee height: 555 km
right ascension of ascending node: 135.1393°
argument of perigee: 66.8128°
revolutions per day: 15.06735461
mean anomaly at epoch: 293.4533°
orbit number at epoch: 59389

The dashed part of the orbit path shows where the satellite is in the earth's shadow,  

DLR